This is the latest recevied weather packets stored in our database for station/object WB0OCV. If no packets are shown the sender has not sent any weather packets the latest 10 day(s).
| Time | Temp. | Humidity | Pressure | Rain* | Wind** | Luminosity | Snow |
|---|---|---|---|---|---|---|---|
| 1778151372 | 10.56° C | 99% | 1009.3 hPa | 1.27 mm | - | 18 W/m² | - |
| 1778151068 | 10.56° C | 99% | 1009.4 hPa | 1.78 mm | - | 19 W/m² | - |
| 1778150766 | 10.56° C | 99% | 1009.5 hPa | 3.05 mm | - | 12 W/m² | - |
| 1778150462 | 10.56° C | 99% | 1009.4 hPa | 1.27 mm | - | 13 W/m² | - |
| 1778150158 | 10.56° C | 99% | 1009.6 hPa | 0 mm | - | 5 W/m² | - |
| 1778149855 | 10.56° C | 99% | 1009.2 hPa | 0 mm | - | 11 W/m² | - |
| 1778149551 | 10.56° C | 99% | 1009.2 hPa | 0 mm | - | 10 W/m² | - |
| 1778149247 | 11.11° C | 99% | 1009.5 hPa | 0 mm | - | 7 W/m² | - |
| 1778148943 | 11.11° C | 99% | 1009.1 hPa | 0 mm | - | 6 W/m² | - |
| 1778148639 | 11.11° C | 99% | 1009 hPa | 1.78 mm | - | 4 W/m² | - |
| 1778148337 | 11.11° C | 99% | 1008.7 hPa | 1.78 mm | - | 7 W/m² | - |
| 1778148035 | 11.11° C | 99% | 1008.4 hPa | 0 mm | - | 3 W/m² | - |
| 1778147733 | 11.11° C | 99% | 1008.9 hPa | 0 mm | - | 2 W/m² | - |
| 1778147429 | 11.67° C | 99% | 1008.9 hPa | 1.27 mm | - | 3 W/m² | - |
| 1778147125 | 11.67° C | 99% | 1008.5 hPa | 1.27 mm | - | 2 W/m² | - |
| 1778146822 | 11.67° C | 99% | 1008.5 hPa | 3.56 mm | - | 1 W/m² | - |
| 1778146520 | 11.67° C | 99% | 1008.2 hPa | 3.05 mm | - | 1 W/m² | - |
| 1778146218 | 11.67° C | 99% | 1008.7 hPa | 4.32 mm | - | 0 W/m² | - |
| 1778145915 | 11.67° C | 99% | 1008.8 hPa | 10.67 mm | - | 0 W/m² | - |
| 1778145611 | 11.67° C | 99% | 1009 hPa | 6.1 mm | - | 0 W/m² | - |
| 1778145308 | 11.11° C | 99% | 1008.4 hPa | 3.05 mm | - | 0 W/m² | - |
| 1778145004 | 11.11° C | 99% | 1008.3 hPa | 4.83 mm | - | 0 W/m² | - |
| 1778144700 | 11.11° C | 99% | 1008.4 hPa | 4.83 mm | - | 0 W/m² | - |
| 1778144396 | 11.11° C | 99% | 1008.9 hPa | 0 mm | - | 0 W/m² | - |
| 1778144094 | 11.11° C | 99% | 1008.7 hPa | 0 mm | - | 0 W/m² | - |
* Rain latest hour (hover to see other rain measurements)
** Current wind speed in m/s (hover to see current wind gust speed)